Wind_Speed
7 7 7 6 6 5 6 5 5 5 6 7 8 8 9 9 10 10 10 10 10 11 11 12 12 12 11 10 9 8 8 7 7 7 6 6 6 5 6 7 8 9 9
6 7 6 6 5 5 5 5 5 5 5 6 6 7 7 8 8 9 9 9 9 10 10 10 11 11 11 10 9 8 8 7 6 5 5 5 5 5 5 5 6 7 8
6 6 6 5 5 5 5 5 5 5 5 5 6 6 7 7 7 7 8 8 8 9 9 9 9 10 10 10 10 9 8 7 6 5 4 3 3 4 4 4 5 5 7
5 6 6 5 5 5 5 5 5 5 5 6 6 7 7 8 8 8 8 8 8 8 9 9 9 9 9 9 9 9 8 8 7 5 4 2 2 2 2 3 4 4 5
6 6 6 5 6 6 6 6 6 6 6 7 8 8 9 9 9 9 9 9 9 9 9 9 10 9 9 9 9 9 9 8 7 6 5 3 1 0 1 2 3 4 5
6 6 6 6 6 6 6 7 7 7 8 8 9 9 10 10 10 10 10 10 11 11 11 11 11 11 10 10 10 10 9 9 8 7 6 4 3 1 2 2 3 4 5
6 6 6 6 7 8 8 9 10 10 10 10 10 10 11 11 11 12 12 12 13 13 13 13 13 13 13 12 11 11 10 10 10 9 7 6 5 4 3 4 4 5 5
6 6 7 8 9 10 11 12 12 12 12 12 13 13 13 13 14 14 14 15 15 15 15 15 15 15 15 15 14 14 13 12 12 11 10 9 8 7 6 6 5 6 6
7 7 8 9 10 12 12 12 13 13 14 14 14 15 15 15 16 16 17 17 17 17 17 17 17 18 18 18 18 17 16 15 15 14 13 12 11 10 9 8 8 7 7
8 9 10 11 12 12 13 14 15 15 15 15 16 16 17 17 18 18 18 19 19 19 20 20 20 20 21 21 21 21 20 19 18 17 16 16 15 13 12 11 10 10 9
10 11 12 12 13 14 15 15 16 16 17 17 18 18 18 19 19 20 20 21 21 22 22 23 23 23 23 23 24 24 23 23 22 20 19 19 18 17 16 15 14 12 11
13 14 14 14 14 15 16 17 18 18 19 20 21 21 21 22 22 23 23 23 24 25 25 25 25 25 25 26 26 26 27 27 25 24 23 22 21 20 19 19 17 16 15
15 16 18 17 17 18 19 20 21 21 22 23 23 24 24 25 26 26 27 26 27 28 28 27 27 26 27 28 28 29 29 30 29 28 25 24 24 24 23 22 21 19 18
19 20 22 21 21 21 23 23 24 24 25 26 26 27 27 28 28 29 30 29 29 29 30 30 30 28 27 28 29 31 31 30 31 31 29 27 26 26 25 25 25 23 21
23 23 24 23 24 25 26 26 26 27 27 28 29 29 30 30 31 32 31 31 31 30 31 32 31 29 28 28 29 30 32 32 31 32 30 29 28 28 28 28 28 26 23
26 25 25 26 27 28 29 28 29 29 30 31 32 32 32 32 33 33 33 34 33 32 32 31 30 30 29 29 29 29 31 32 31 30 30 30 30 29 29 29 28 26 25
27 27 27 27 29 30 30 31 32 33 34 35 35 35 35 35 35 34 35 35 34 34 33 32 30 29 28 29 29 29 29 30 31 31 31 30 30 30 30 29 29 28 27
26 27 27 28 29 29 30 31 33 34 36 37 37 37 37 37 36 36 36 36 36 36 35 33 32 31 29 29 28 27 27 28 30 30 31 30 30 31 31 29 28 29 28
25 26 27 28 29 30 31 33 35 36 38 39 39 39 39 39 38 39 38 38 37 36 35 34 33 31 30 29 28 28 28 28 28 29 30 30 29 30 30 30 30 29 29
25 26 27 29 30 32 33 35 37 38 39 40 41 41 40 41 41 40 40 39 38 37 36 36 34 33 32 31 30 30 30 29 29 30 30 30 30 30 31 31 31 30 30
24 25 27 29 30 32 34 35 37 38 40 40 41 41 41 42 41 41 41 40 39 39 38 37 36 35 34 33 32 31 31 30 30 30 29 30 30 31 31 30 30 30 30
22 24 26 28 30 32 34 36 37 39 40 41 41 42 42 42 41 41 40 40 40 40 40 39 38 36 36 36 35 33 32 31 31 30 29 29 29 31 31 31 31 30 32
21 23 25 27 30 32 34 36 37 39 40 40 41 41 41 41 41 41 40 40 40 40 40 40 39 38 36 36 36 35 34 32 32 31 29 29 29 30 32 31 32 32 33
20 22 24 26 29 31 33 35 37 38 38 39 39 39 39 39 39 39 39 38 38 38 38 39 39 38 37 36 36 36 35 33 31 31 30 29 29 30 33 34 33 33 34
20 22 24 25 27 29 30 32 34 36 37 38 38 39 39 38 38 37 36 35 34 34 34 35 36 36 36 36 36 36 36 35 33 32 30 29 30 30 33 33 34 34 35
22 25 26 27 28 29 31 32 33 34 35 36 37 37 37 37 37 36 35 34 33 33 32 32 32 33 34 35 35 35 36 35 34 33 32 31 31 32 33 34 35 35 35
Wind_Direction
339 344 345 337 336 337 337 338 343 352 358 4 8 10 10 10 11 12 13 13 14 17 19 19 20 19 18 18 19 21 24 32 39 49 59 68 78 90 100 106 108 110 109
348 349 344 336 331 327 324 323 327 335 343 351 357 1 2 1 2 3 4 5 6 8 10 10 10 11 11 11 11 12 13 20 26 34 52 65 75 86 100 110 113 113 111
358 355 342 329 322 316 312 309 311 319 329 338 343 346 348 347 347 349 351 351 351 354 357 359 357 358 360 0 1 2 4 6 11 14 30 53 68 83 97 111 119 118 115
354 346 332 323 314 308 302 300 304 311 319 326 329 331 332 332 330 330 332 333 334 336 338 340 340 342 344 347 348 349 352 355 358 358 1 23 56 84 109 124 131 132 126
337 331 323 317 311 306 300 299 305 309 314 319 322 323 323 322 321 320 320 320 320 322 322 322 323 323 326 329 331 333 335 337 341 344 343 342 348 84 157 164 159 153 144
328 323 317 310 304 302 299 297 301 304 307 311 315 315 314 312 310 310 310 309 309 309 309 309 307 307 307 309 312 315 318 320 320 324 328 319 304 272 232 206 192 181 171
317 310 308 302 298 298 300 300 300 302 302 304 305 304 303 302 300 299 299 299 300 299 298 296 295 294 293 293 294 296 298 302 303 304 305 300 289 275 258 235 217 204 193
310 298 294 293 292 293 295 296 298 298 299 300 300 298 296 297 297 296 294 293 292 293 291 288 285 284 284 283 282 282 282 284 287 288 286 284 280 272 263 252 237 224 212
300 297 290 288 290 291 293 294 296 296 297 297 298 297 296 296 296 297 295 292 291 289 289 286 280 277 276 277 276 275 273 274 275 276 276 275 273 268 263 258 249 238 228
290 290 289 288 291 293 293 293 295 295 297 299 299 298 299 298 297 297 297 294 292 291 289 286 281 275 272 271 271 270 269 268 267 266 268 268 268 266 262 259 254 246 238
286 288 291 290 293 294 295 295 296 297 299 300 299 299 299 298 297 296 295 295 294 292 290 286 283 276 272 269 267 265 266 266 264 261 260 261 262 262 260 257 254 250 244
286 289 290 287 291 294 295 296 297 298 298 299 298 296 298 298 295 293 295 295 295 293 290 285 282 279 272 269 265 263 262 262 261 259 256 255 257 258 257 255 251 249 247
281 286 288 288 289 291 291 293 294 295 296 297 297 295 296 297 295 294 292 293 294 293 290 285 282 280 276 271 267 263 260 260 260 258 256 253 253 255 254 252 249 247 246
280 280 283 286 285 286 288 289 291 294 294 295 296 296 296 296 294 293 289 289 290 290 288 288 288 285 281 275 270 263 260 260 258 256 255 253 251 252 252 251 247 244 244
280 278 280 284 284 284 284 285 288 290 290 290 292 292 292 293 292 294 292 290 290 288 289 288 288 286 285 281 274 268 261 257 258 256 254 251 250 250 250 250 244 241 240
284 284 284 284 285 284 285 287 289 289 289 290 289 290 290 291 291 291 291 290 290 288 288 287 285 284 283 282 278 270 265 260 257 256 254 251 251 248 246 247 242 239 240
287 287 286 286 286 284 285 287 288 290 290 290 290 291 292 291 290 290 290 290 288 288 286 284 282 282 280 278 277 270 266 262 258 258 255 255 250 245 243 243 240 237 236
287 287 287 287 287 286 287 288 290 290 290 291 292 292 292 292 292 291 289 287 286 286 285 282 279 279 278 277 273 267 266 264 261 259 255 253 249 243 242 240 235 235 233
288 287 287 286 287 287 288 289 290 290 291 291 292 292 292 291 291 291 289 287 285 283 282 281 278 276 276 274 271 266 265 263 261 260 257 252 245 241 241 239 234 232 228
291 291 291 290 289 289 289 289 289 289 290 290 291 291 291 290 290 289 288 285 284 281 279 279 277 275 274 272 270 266 263 261 261 263 258 252 244 239 239 236 233 229 226
294 295 294 294 293 292 291 290 290 290 291 291 291 291 290 289 288 287 286 284 282 280 278 277 275 274 273 271 271 268 264 262 262 262 258 252 244 236 234 233 231 227 224
299 299 299 297 296 294 293 293 293 292 292 292 291 290 289 288 287 285 283 281 281 279 277 275 273 271 271 270 268 268 265 263 262 260 257 249 243 235 230 230 229 227 223
303 303 302 300 298 297 296 295 294 294 293 292 291 291 290 288 286 284 282 280 278 277 276 274 272 269 267 266 265 264 263 261 258 257 254 248 244 236 231 229 228 225 223
310 308 306 304 301 299 298 297 297 296 295 294 293 292 291 290 288 286 284 281 278 276 273 272 270 268 265 263 262 260 259 258 255 252 250 245 243 240 233 228 225 223 221
313 312 310 308 305 302 300 299 298 297 296 295 294 293 292 290 288 286 284 282 279 277 274 271 268 266 263 261 259 257 255 254 253 249 245 243 240 237 231 225 222 220 218
321 319 318 317 314 311 308 306 303 301 299 298 296 295 294 293 290 288 285 282 280 277 275 271 269 266 263 260 257 255 253 251 250 245 242 239 235 234 229 223 219 217 216
Height
5923 5922 5921 5921 5921 5921 5921 5920 5920 5919 5919 5918 5918 5917 5917 5916 5915 5914 5913 5913 5912 5910 5909 5908 5906 5905 5904 5904 5903 5902 5902 5901 5901 5900 5900 5899 5899 5899 5898 5898 5898 5898 5898
5922 5921 5921 5921 5921 5920 5920 5920 5919 5918 5918 5917 5917 5916 5916 5915 5915 5914 5913 5913 5912 5911 5910 5908 5907 5906 5905 5904 5903 5902 5902 5901 5901 5901 5900 5900 5900 5899 5899 5899 5899 5899 5899
5921 5921 5920 5920 5920 5920 5919 5919 5918 5918 5917 5917 5916 5916 5915 5915 5914 5914 5913 5912 5911 5910 5910 5909 5908 5907 5906 5905 5904 5903 5902 5901 5901 5901 5900 5900 5900 5900 5900 5899 5899 5900 5900
5920 5920 5920 5919 5919 5919 5919 5918 5918 5917 5917 5916 5915 5915 5914 5914 5913 5913 5912 5911 5911 5910 5909 5908 5907 5906 5906 5905 5904 5903 5902 5902 5901 5901 5901 5900 5900 5900 5900 5900 5900 5900 5900
5919 5919 5919 5919 5918 5918 5918 5918 5917 5916 5916 5915 5914 5914 5913 5913 5912 5911 5911 5910 5909 5909 5908 5907 5906 5905 5905 5904 5903 5903 5902 5901 5901 5901 5901 5900 5900 5900 5900 5900 5900 5900 5901
5918 5918 5918 5918 5917 5917 5917 5916 5916 5915 5915 5914 5913 5912 5912 5911 5910 5910 5909 5908 5907 5907 5906 5905 5905 5904 5903 5903 5902 5902 5901 5901 5900 5900 5900 5900 5900 5900 5900 5900 5900 5901 5901
5917 5917 5917 5917 5916 5916 5915 5915 5914 5913 5913 5912 5911 5910 5909 5908 5908 5907 5906 5906 5905 5904 5904 5903 5902 5902 5901 5901 5901 5900 5900 5900 5899 5899 5899 5899 5899 5899 5899 5900 5900 5900 5901
5915 5915 5915 5915 5915 5914 5913 5913 5912 5911 5910 5909 5908 5907 5906 5906 5905 5904 5903 5902 5902 5901 5900 5900 5899 5898 5898 5898 5898 5898 5898 5898 5897 5897 5897 5897 5898 5898 5898 5899 5899 5899 5900
5913 5913 5913 5913 5912 5911 5911 5910 5909 5908 5907 5906 5905 5904 5903 5902 5901 5900 5899 5898 5898 5897 5896 5896 5895 5894 5894 5894 5894 5894 5894 5894 5895 5894 5894 5895 5895 5896 5896 5897 5897 5898 5898
5911 5911 5910 5910 5909 5908 5907 5906 5905 5905 5904 5903 5901 5900 5899 5898 5897 5896 5895 5894 5893 5892 5892 5891 5890 5889 5889 5889 5889 5889 5889 5890 5890 5891 5891 5891 5892 5893 5894 5894 5895 5896 5896
5909 5908 5907 5906 5906 5905 5904 5903 5902 5901 5900 5899 5898 5896 5895 5894 5892 5891 5890 5889 5888 5887 5886 5885 5884 5884 5883 5883 5883 5883 5884 5884 5885 5886 5887 5887 5888 5889 5890 5891 5892 5893 5894
5906 5905 5904 5903 5902 5901 5900 5899 5898 5897 5896 5894 5893 5892 5890 5889 5888 5886 5885 5883 5882 5881 5880 5879 5878 5877 5877 5877 5876 5876 5877 5877 5878 5880 5881 5883 5883 5884 5886 5887 5888 5889 5890
5902 5901 5900 5899 5898 5897 5895 5894 5893 5892 5891 5889 5888 5887 5885 5884 5882 5880 5879 5877 5876 5874 5873 5871 5870 5870 5869 5869 5869 5869 5869 5870 5871 5873 5875 5877 5878 5879 5881 5882 5884 5885 5886
5898 5897 5895 5894 5893 5892 5890 5889 5887 5886 5885 5884 5883 5881 5880 5878 5876 5874 5872 5870 5869 5867 5865 5864 5863 5862 5862 5861 5861 5861 5862 5863 5864 5865 5867 5870 5871 5873 5874 5876 5878 5880 5881
5891 5891 5890 5889 5888 5886 5884 5882 5881 5880 5879 5878 5876 5875 5873 5871 5869 5867 5864 5863 5862 5860 5858 5857 5856 5855 5854 5853 5853 5853 5854 5855 5856 5857 5859 5862 5864 5866 5868 5870 5872 5874 5876
5884 5884 5883 5882 5881 5879 5877 5875 5874 5873 5871 5870 5869 5867 5866 5864 5862 5860 5858 5856 5854 5852 5851 5850 5849 5848 5847 5846 5846 5846 5846 5847 5847 5849 5851 5853 5856 5858 5861 5863 5865 5868 5870
5879 5878 5877 5875 5874 5872 5870 5868 5867 5865 5864 5862 5861 5859 5857 5855 5853 5852 5850 5848 5845 5844 5843 5842 5842 5841 5840 5839 5838 5838 5839 5839 5840 5841 5843 5845 5848 5850 5853 5856 5858 5862 5865
5873 5872 5871 5869 5868 5865 5862 5860 5858 5858 5855 5853 5852 5850 5848 5846 5844 5843 5841 5839 5837 5836 5834 5834 5833 5833 5832 5831 5831 5831 5831 5831 5833 5834 5835 5837 5839 5842 5846 5848 5851 5855 5859
5868 5866 5865 5863 5861 5859 5857 5854 5852 5850 5848 5845 5843 5841 5839 5837 5835 5833 5832 5830 5828 5827 5826 5825 5825 5824 5824 5823 5823 5823 5824 5824 5825 5826 5828 5829 5832 5835 5838 5841 5845 5848 5852
5863 5861 5859 5857 5855 5853 5850 5848 5845 5842 5840 5837 5835 5832 5830 5828 5825 5823 5821 5820 5819 5817 5817 5816 5815 5815 5815 5815 5815 5815 5816 5817 5818 5819 5820 5822 5824 5828 5831 5834 5838 5842 5846
5858 5856 5853 5851 5848 5845 5843 5840 5837 5834 5831 5828 5825 5823 5820 5818 5816 5814 5811 5810 5808 5807 5807 5806 5806 5806 5806 5806 5806 5807 5808 5809 5810 5811 5812 5814 5816 5820 5823 5827 5831 5835 5839
5854 5851 5848 5845 5841 5838 5835 5831 5828 5825 5822 5819 5816 5813 5810 5808 5805 5803 5801 5799 5798 5796 5796 5795 5796 5796 5797 5796 5797 5798 5799 5801 5802 5802 5804 5806 5809 5812 5816 5820 5824 5828 5833
5849 5846 5843 5839 5835 5831 5827 5823 5819 5816 5812 5809 5806 5803 5799 5797 5794 5792 5790 5789 5787 5786 5785 5784 5784 5785 5786 5787 5787 5788 5790 5792 5793 5795 5796 5798 5801 5804 5809 5812 5817 5821 5825
5845 5841 5838 5833 5829 5824 5820 5815 5811 5807 5803 5799 5795 5792 5789 5786 5783 5781 5779 5777 5776 5775 5774 5773 5773 5773 5775 5776 5777 5778 5780 5782 5785 5787 5789 5791 5794 5797 5800 5805 5809 5814 5818
5840 5836 5832 5828 5823 5818 5813 5808 5803 5798 5794 5790 5785 5782 5779 5776 5772 5770 5768 5766 5765 5764 5763 5762 5762 5762 5763 5765 5766 5768 5769 5772 5775 5778 5781 5783 5786 5789 5792 5796 5801 5806 5811
5834 5829 5825 5820 5815 5810 5805 5799 5794 5790 5785 5780 5776 5772 5768 5765 5762 5759 5757 5756 5754 5753 5753 5752 5752 5752 5752 5754 5755 5757 5759 5762 5765 5768 5772 5775 5778 5781 5785 5789 5794 5799 5804